Location: ????
(32.1228°N, 34.8377°E)
Time: 01:35:55
(UTC+00:00)

BREEZE-M DEB (TANK) - Pass Details

Date: 21 September 2020
Orbit: 424 x 13860 km, 45.9° (Epoch: 20 October)

Event Time Altitude Azimuth Distance (km) Brightness Sun altitude
Exits shadow 00:57:33 60° 314° (NW) 1,479 4.2 -31.9°
Maximum altitude 00:58:12 62° 338° (NNW) 1,556 4.4 -31.7°
Drops below altitude 10° 01:17:05 10° 58° (ENE) 8,093 9.1 -28.0°
Sets 01:29:30 0° 62° (ENE) 11,689 10.3 -25.6°
